Regional Weather Roundup
Issued by NWS

Home | Current Version | Previous Version | Graphics & Text | Print | Product List | Glossary On
Versions: 1 2 3 4 5 6 7 8 9 10 11 12 13 14 15 16 17 18 19 20 21 22 23 24 25 26 27 28 29 30 31 32 33 34 35 36 37 38 39 40 41 42 43 44 45 46 47 48 49 50
852
ASUS45 KSLC 230310
RWRUT

UTAH REGIONAL WEATHER ROUNDUP
NATIONAL WEATHER SERVICE SALT LAKE CITY UT
900 PM MDT WED MAR 22 2017

UTZ001>011-023>025-230400-

NORTHERN UTAH

CITY           SKY/WX    TMP DP  RH WIND       PRES   REMARKS
BRIGHAM CITY     N/A     50  45  83 N6        29.79S
HILL AFB       CLEAR     49  42  76 SE6       29.77F
LOGAN          LGT RAIN  48  45  89 NE5       29.81R
OGDEN          CLOUDY    50  44  80 NE5       29.76F
SALT LAKE CITY CLOUDY    52  45  77 CALM      29.75F
WENDOVER       MOCLDY    46  32  57 NW31G44   29.79R
HEBER CITY     CLOUDY    48  37  66 NW6       29.81R

$$

UTZ011>015-024>027-230400-

CENTRAL/NORTHEAST UTAH

CITY           SKY/WX    TMP DP  RH WIND       PRES   REMARKS
PROVO AIRPORT  CLOUDY    55  41  59 SE7       29.74F
MOAB/CANYONLAN CLOUDY    63  35  35 W18       29.76S
DELTA          MOCLDY    55  32  41 SW10      29.75S
PRICE          LGT RAIN  46  42  86 S10       29.86R
ROOSEVELT      CLOUDY    50  41  71 NW15G24   29.86S
VERNAL         LGT RAIN  55  37  50 W23G32    29.83R

$$

UTZ013>016-019>022-027-230400-

SOUTHERN UTAH

CITY           SKY/WX    TMP DP  RH WIND       PRES   REMARKS
BRYCE CANYON   LGT RAIN  38  35  89 W6        29.87F WCI  33
CEDAR CITY     LGT RAIN  42  36  79 W24G30    29.84R
MILFORD        MOCLDY    53  28  38 SW21G28   29.78R
ST GEORGE      LGT RAIN  54  44  69 CALM      29.82R
HANKSVILLE     CLOUDY    54  43  66 W22       29.84R
BLANDING       CLOUDY    54  29  38 CALM      29.91F

$$

REGIONAL REPORTS     COLORADO/ARIZONA

CITY           SKY/WX    TMP DP  RH WIND       PRES   REMARKS
CRAIG, CO      CLOUDY    54  29  38 SW16G30   29.89F
GRAND JUNCTION CLOUDY    63  26  24 S7        29.78F
RIFLE, CO      CLOUDY    56  34  43 CALM      29.86F
MONTROSE, CO   CLOUDY    54  28  36 S6        29.86F
CORTEZ, CO     CLOUDY    55  25  31 S5        29.88S
COLORADO CITY  CLOUDY    46  43  87 W8G16     29.91R
PAGE, AZ       CLOUDY    56 N/A N/A E3        29.78F
GRAND CANYON   TSTM      42  39  89 SW22G32   29.90F FOG
KINGMAN, AZ    CLOUDY    51  44  77 W9        29.85F
FLAGSTAFF, AZ  LGT RAIN  47  38  71 SW14      29.90F

$$

REGIONAL REPORTS    NEVADA/IDAHO/WYOMING

CITY           SKY/WX    TMP DP  RH WIND       PRES   REMARKS
LAS VEGAS, NV  CLOUDY    64  22  20 S13       29.74F
ELY, NY        CLOUDY    44  20  38 W10       29.80S
ELKO, NV       LGT SNOW  34  32  92 CALM      29.93R FOG
POCATELLO, ID  MOCLDY    39  39 100 CALM      29.82F
BURLEY, ID     CLOUDY    45  35  68 SW10      29.85R
FORT BRIDGER,  MOCLDY    42  39  88 NE5       29.90S
EVANSTON, WY   CLOUDY    42  34  73 E8        29.85F
ROCK SPRINGS,  LGT RAIN  45  40  82 N6        29.87R
KEMMERER, WY   LGT RAIN  36  34  93 NW8       29.87F WCI  29

$$




USA.gov is the U.S. government's official web portal to all federal, state and local government web resources and services.